Location: Anumalkud?ru
(16.4847°N, 80.6636°E)
Time: 11:23:42
(UTC+00:00)

Hubble Space Telescope - Pass Details

Date: 11 April 2026
Orbit: 473 x 476 km, 28.5° (Epoch: 11 May)

Event Time Altitude Azimuth Distance (km) Brightness Sun altitude
Exits shadow 23:17:08 - 325° (NW) 1,788 3.2 -16.6°
Reaches altitude 10° 23:17:55 10° 335° (NNW) 1,621 3.1 -16.5°
Maximum altitude 23:19:44 13° 4° (N) 1,439 3.2 -16.0°
Drops below altitude 10° 23:21:33 10° 34° (NNE) 1,621 3.9 -15.6°
Sets 23:24:44 0° 62° (ENE) 2,497 5.8 -14.9°
